Location: ??
(35.5052°N, 139.7262°E)
Time: 03:43:12
(UTC+00:00)

MINOTAUR 4 R/B - Pass Details

Date: 20 June 2021
Orbit: 475 x 481 km, 98.0° (Epoch: 26 July)

Event Time Altitude Azimuth Distance (km) Brightness Sun altitude
Exits shadow 17:08:23 70° 324° (NW) 507 4.1 -21.7°
Drops below altitude 10° 17:11:35 10° 346° (NNW) 1,648 7.2 -21.3°
Sets 17:13:39 0° 347° (NNW) 2,531 8.3 -21.1°
